This is the latest recevied weather packets stored in our database for station/object NA9VY-8. If no packets are shown the sender has not sent any weather packets the latest 10 day(s).
| Time | Temp. | Humidity | Pressure | Rain* | Wind** | Luminosity | Snow |
|---|---|---|---|---|---|---|---|
| 1777248528 | 19.44° C | 62% | 1017.2 hPa | 0 mm | - | 6 W/m² | - |
| 1777248224 | 19.44° C | 62% | 1017.4 hPa | 0 mm | - | 9 W/m² | - |
| 1777247924 | 19.44° C | 61% | 1017.3 hPa | 0 mm | - | 10 W/m² | - |
| 1777247619 | 20° C | 61% | 1017.3 hPa | 0 mm | - | 13 W/m² | - |
| 1777247317 | 20° C | 59% | 1017.4 hPa | 0 mm | - | 17 W/m² | - |
| 1777247015 | 20° C | 60% | 1017.3 hPa | 0 mm | - | 18 W/m² | - |
| 1777246712 | 20° C | 59% | 1017.5 hPa | 0 mm | - | 22 W/m² | - |
| 1777246407 | 20° C | 60% | 1017.4 hPa | 0 mm | - | 28 W/m² | - |
| 1777246105 | 20.56° C | 60% | 1017.4 hPa | 0 mm | - | 28 W/m² | - |
| 1777245803 | 20.56° C | 59% | 1017.2 hPa | 0 mm | - | 29 W/m² | - |
| 1777245501 | 20.56° C | 58% | 1017.3 hPa | 0 mm | - | 31 W/m² | - |
| 1777245196 | 20.56° C | 59% | 1017.1 hPa | 0 mm | - | 34 W/m² | - |
| 1777244892 | 20.56° C | 59% | 1017.5 hPa | 0 mm | - | 42 W/m² | - |
| 1777244588 | 20.56° C | 59% | 1017.4 hPa | 0 mm | - | 38 W/m² | - |
| 1777244284 | 20.56° C | 58% | 1017.2 hPa | 0 mm | - | 51 W/m² | - |
| 1777243982 | 20.56° C | 59% | 1017.1 hPa | 0 mm | - | 48 W/m² | - |
| 1777243678 | 20.56° C | 59% | 1017.1 hPa | 0 mm | - | 60 W/m² | - |
| 1777243376 | 21.11° C | 59% | 1017.1 hPa | 0 mm | - | 49 W/m² | - |
| 1777243071 | 21.11° C | 59% | 1017.4 hPa | 0 mm | - | 67 W/m² | - |
| 1777242768 | 21.11° C | 59% | 1017.2 hPa | 0 mm | - | 51 W/m² | - |
| 1777242464 | 21.11° C | 59% | 1017.2 hPa | 0 mm | - | 69 W/m² | - |
| 1777242161 | 21.67° C | 58% | 1017.2 hPa | 0 mm | - | 203 W/m² | - |
| 1777241858 | 21.11° C | 58% | 1017.3 hPa | 0 mm | - | 258 W/m² | - |
| 1777241556 | 21.11° C | 57% | 1017.3 hPa | 0 mm | - | 265 W/m² | - |
| 1777241253 | 21.67° C | 58% | 1017.4 hPa | 0 mm | - | 292 W/m² | - |
* Rain latest hour (hover to see other rain measurements)
** Current wind speed in m/s (hover to see current wind gust speed)